Weather History for Chicago Executive, IL

Change the Weather History Date:

Saturday, October 5, 2013

  Actual Average Record
Temperature  
Mean Temperature 71 °F 56 °F  
Max Temperature 81 °F 66 °F 89 °F (1997)
Min Temperature 61 °F 46 °F 33 °F (2004)
Degree Days  
Heating Degree Days 0 10  
Month to date heating degree days 0 45  
Since 1 July heating degree days 90 157  
Cooling Degree Days 6 1  
Month to date cooling degree days 22 5  
Year to date cooling degree days 918 783  
Growing Degree Days 20 (Base 50)    
Moisture  
Dew Point 65 °F    
Average Humidity 85    
Maximum Humidity 94    
Minimum Humidity 65    
Precipitation  
Precipitation 1.31 in 0.09 in 1.31 in (2013)
Month to date precipitation 1.39 0.58  
Year to date precipitation 24.29 26.27  
Sea Level Pressure  
Sea Level Pressure 29.86 in    
Wind  
Wind Speed 5 mph (South)    
Max Wind Speed 22 mph    
Max Gust Speed 31 mph    
Visibility 5 miles    
Events Fog , Rain , Thunderstorm    
T = Trace of Precipitation, MM = Missing Value Source: NWS Daily Summary

Daily Weather History Graph

Daily Weather History Graph

Search for Another Location

Airport:

Trip Planner

Search our weather history database for the weather conditions in past years. The results will help you decide how hot, cold, wet, or windy it might be!

Date:

Astronomy

Oct. 05, 2013 Rise Set
Actual Time 6:53 AM CDT 6:25 PM CDT
Civil Twilight 6:25 AM CDT 6:53 PM CDT
Nautical Twilight 5:52 AM CDT 7:26 PM CDT
Astronomical Twilight 5:20 AM CDT 7:58 PM CDT
Moon 7:33 AM CDT (10/5) 6:43 PM CDT (10/5)
Length of Visible Light 12h 28m
Length of Day
11h 32m
New Moon, 1% of the Moon is Illuminated
Oct 5
New Moon
Oct 11
First Quarter
Oct 18
Full
Oct 26
Last Quarter
Nov 3
New

Hourly Weather History & Observations

Time (CDT) Temp. Heat Index Dew Point Humidity Pressure Visibility Wind Dir Wind Speed Gust Speed Precip Events Conditions
12:52 AM 63.0 °F - 61.0 °F 93% 29.96 in 3.0 mi Calm Calm - N/A   Clear
1:42 AM 64.4 °F - 62.6 °F 94% 29.95 in 2.5 mi Calm Calm - N/A   Clear
1:49 AM 64.4 °F - 62.6 °F 94% 29.95 in 1.0 mi Calm Calm - N/A   Clear
1:52 AM 64.0 °F - 61.0 °F 90% 29.94 in 0.8 mi Calm Calm - N/A   Mist
2:12 AM 64.4 °F - 62.6 °F 94% 29.95 in 0.2 mi Calm Calm - N/A Fog Fog
2:52 AM 63.0 °F - 61.0 °F 93% 29.94 in 1.8 mi Calm Calm - N/A   Scattered Clouds
2:59 AM 62.6 °F - 60.8 °F 94% 29.94 in 2.5 mi Calm Calm - N/A   Partly Cloudy
3:24 AM 62.6 °F - 60.8 °F 94% 29.94 in 3.0 mi Calm Calm - N/A   Clear
3:41 AM 62.6 °F - 59.0 °F 88% 29.94 in 1.8 mi Calm Calm - N/A   Clear
3:52 AM 61.0 °F - 59.0 °F 93% 29.93 in 1.8 mi Calm Calm - N/A   Clear
4:05 AM 62.6 °F - 59.0 °F 88% 29.93 in 3.0 mi Calm Calm - N/A   Clear
4:52 AM 63.0 °F - 60.1 °F 90% 29.93 in 4.0 mi Calm Calm - N/A   Clear
5:52 AM 63.0 °F - 60.1 °F 90% 29.93 in 5.0 mi Calm Calm - N/A   Partly Cloudy
6:52 AM 66.9 °F - 64.0 °F 90% 29.92 in 2.5 mi SSE 3.5 mph - N/A   Mostly Cloudy
7:37 AM 69.8 °F - 66.2 °F 88% 29.92 in 2.5 mi South 3.5 mph - N/A   Scattered Clouds
7:47 AM 69.8 °F - 66.2 °F 88% 29.93 in 2.5 mi South 5.8 mph - N/A   Mostly Cloudy
7:52 AM 70.0 °F - 66.9 °F 90% 29.92 in 4.0 mi South 5.8 mph - N/A   Mostly Cloudy
8:52 AM 72.0 °F - 68.0 °F 87% 29.91 in 4.0 mi South 5.8 mph - 0.00 in   Overcast
9:52 AM 73.9 °F - 69.1 °F 85% 29.92 in 6.0 mi SSW 4.6 mph - N/A   Haze
10:52 AM 75.9 °F - 69.1 °F 79% 29.91 in 7.0 mi SSW 9.2 mph - N/A   Overcast
11:52 AM 78.1 °F - 69.1 °F 74% 29.90 in 7.0 mi SSW 10.4 mph - N/A   Overcast
12:22 PM 78.8 °F - 69.8 °F 74% 29.90 in 7.0 mi South 6.9 mph - N/A   Overcast
12:52 PM 78.1 °F - 69.1 °F 74% 29.88 in 8.0 mi SSW 9.2 mph - N/A   Overcast
1:52 PM 79.0 °F - 69.1 °F 72% 29.85 in 8.0 mi South 9.2 mph - N/A   Overcast
2:16 PM 80.6 °F 83.9 °F 69.8 °F 70% 29.84 in 9.0 mi South 4.6 mph - N/A   Scattered Clouds
2:43 PM 80.6 °F 83.2 °F 68.0 °F 65% 29.82 in 9.0 mi SSE 6.9 mph - N/A   Mostly Cloudy
2:52 PM 80.1 °F 82.7 °F 68.0 °F 67% 29.82 in 9.0 mi South 6.9 mph - N/A   Mostly Cloudy
3:52 PM 80.1 °F 82.7 °F 68.0 °F 67% 29.78 in 7.0 mi East 3.5 mph - N/A   Partly Cloudy
3:59 PM 78.8 °F - 69.8 °F 74% 29.78 in 7.0 mi East 8.1 mph - 0.00 in Rain , Thunderstorm Light Thunderstorms and Rain
4:22 PM 75.2 °F - 69.8 °F 83% 29.80 in 2.5 mi SE 15.0 mph 20.7 mph 0.06 in Thunderstorm Unknown
4:25 PM 73.4 °F - 68.0 °F 83% 29.82 in 0.8 mi South 21.9 mph 29.9 mph 0.19 in Rain , Thunderstorm Heavy Thunderstorms and Rain
4:37 PM 69.8 °F - 66.2 °F 88% 29.86 in 0.2 mi SSE 17.3 mph 25.3 mph 0.72 in Fog , Rain , Thunderstorm Heavy Thunderstorms and Rain
4:52 PM 69.1 °F - 66.0 °F 90% 29.84 in 0.8 mi South 10.4 mph 25.3 mph 1.25 in Rain , Thunderstorm Thunderstorms and Rain
4:54 PM 68.0 °F - 66.2 °F 94% 29.84 in 1.2 mi SSE 10.4 mph 20.7 mph 0.00 in Rain , Thunderstorm Light Thunderstorms and Rain
4:57 PM 69.8 °F - 66.2 °F 88% 29.83 in 3.0 mi SE 8.1 mph - 0.00 in Rain , Thunderstorm Light Thunderstorms and Rain
5:02 PM 69.8 °F - 66.2 °F 88% 29.82 in 10.0 mi SE 4.6 mph - 0.00 in Rain , Thunderstorm Light Thunderstorms and Rain
5:31 PM 69.8 °F - 66.2 °F 88% 29.81 in 9.0 mi South 5.8 mph - 0.00 in Rain , Thunderstorm Light Rain
5:47 PM 69.8 °F - 64.4 °F 83% 29.83 in 2.5 mi South 8.1 mph - 0.06 in Rain Rain
5:52 PM 69.1 °F - 64.9 °F 87% 29.83 in 2.5 mi Variable 6.9 mph - 0.06 in Rain Light Rain
6:00 PM 69.8 °F - 64.4 °F 83% 29.84 in 10.0 mi NW 8.1 mph - 0.00 in   Overcast
6:06 PM 69.8 °F - 64.4 °F 83% 29.83 in 10.0 mi Calm Calm - 0.00 in   Overcast
6:22 PM 69.8 °F - 64.4 °F 83% 29.82 in 10.0 mi Calm Calm - 0.00 in   Overcast
6:52 PM 69.1 °F - 66.0 °F 90% 29.81 in 10.0 mi Calm Calm - 0.00 in   Mostly Cloudy
7:52 PM 69.1 °F - 66.0 °F 90% 29.79 in 9.0 mi Calm Calm - N/A   Clear
8:29 PM 69.8 °F - 66.2 °F 88% 29.82 in 6.0 mi Calm Calm - N/A   Scattered Clouds
8:52 PM 69.1 °F - 66.9 °F 93% 29.81 in 6.0 mi Calm Calm - N/A   Overcast
9:52 PM 70.0 °F - 66.9 °F 90% 29.80 in 9.0 mi South 8.1 mph - N/A   Overcast
10:08 PM 69.8 °F - 66.2 °F 88% 29.80 in 8.0 mi South 5.8 mph - N/A   Mostly Cloudy
10:30 PM 69.8 °F - 66.2 °F 88% 29.80 in 7.0 mi South 6.9 mph - N/A   Mostly Cloudy
10:52 PM 70.0 °F - 66.0 °F 87% 29.78 in 9.0 mi SSW 5.8 mph - N/A   Mostly Cloudy
11:25 PM 68.0 °F - 64.4 °F 88% 29.77 in 10.0 mi West 3.5 mph - N/A   Overcast
11:52 PM 68.0 °F - 63.0 °F 84% 29.77 in 10.0 mi Variable 3.5 mph - N/A   Mostly Cloudy